Location: Melbourne
(37.8666°S, 145.1333°E)
Time: 18:52:06
(UTC+10:00)

Daily predictions for brighter satellites

Satellite Brightness Start Highest point End
(mag) Time Altitude Azimuth Time Altitude Azimuth Time Altitude Azimuth
Cosmos 1626 Rocket 3.5 17:33:17 10° S 17:37:40 67° E 17:42:00 10° NNE
Okean-O 3.6 17:33:44 10° S 17:38:06 50° WSW 17:42:25 10° NNW
Meteor 1-21 4.3 17:36:13 10° S 17:41:55 63° E 17:47:36 10° NNE
PAYLOAD A 4.3 17:36:55 10° SSE 17:42:19 56° E 17:47:27 10° N
Cosmos 2278 3.9 17:37:33 10° N 17:43:04 57° ENE 17:48:39 10° SSE
SL-08 ROCKET BODY 4.4 17:38:24 10° N 17:44:18 73° E 17:50:12 10° S
Cosmos 405 3.0 17:42:50 10° N 17:46:25 81° E 17:50:05 10° S
CZ-2C R/B 2.8 17:42:48 10° SSE 17:47:22 39° E 17:51:45 10° NNE
Cosmos 2084 3.8 17:43:35 10° SSW 17:48:26 55° SE 17:53:02 10° NE
Cosmos 1666 3.0 17:47:44 10° N 17:51:39 76° W 17:55:37 10° S
Cosmos 1980 Rocket 3.6 17:49:31 10° NE 17:53:17 19° E 17:56:38 11° ESE
Cosmos 2056 Rocket 3.6 17:48:06 10° NNW 17:53:24 88° WSW 17:58:51 10° SSE
Cosmos 1825 Rocket 4.3 17:50:27 10° SSE 17:54:21 30° ESE 17:58:12 10° NE
Meteor 2-9 Rocket 4.3 17:49:35 10° N 17:55:20 68° E 18:01:00 10° SSE
OAO 2 Rocket 4.2 17:51:22 10° NW 17:56:04 40° NNE 18:00:39 10° E
ERS-2 2.4 17:52:24 10° S 17:56:10 74° WSW 17:59:53 10° NNW
Thor Agena Rocket 3.9 17:51:17 10° N 17:56:21 70° WNW 18:01:34 10° SSW
MSX 4.3 17:51:58 10° SSE 17:57:22 39° E 18:02:42 10° NNE
Cosmos 2082 3.8 17:52:59 10° SSW 17:58:36 54° ESE 18:04:06 10° NE
CZ-4 R/B 2.5 17:58:06 10° SE 18:01:38 27° E 18:05:10 10° NNE
Cosmos 921 Rocket 2.9 17:57:30 10° NNW 18:01:43 89° WSW 18:06:02 10° SSE
PSLV R/B 3.6 18:00:34 10° WSW 18:03:38 44° S 18:05:39 18° ESE
Cosmos 2297 Rocket 2.2 18:00:18 10° SSW 18:05:56 59° ESE 18:11:30 10° NE
Cosmos 2074 Rocket 4.1 18:03:24 10° N 18:09:42 89° W 18:16:04 10° S
Lacrosse 4 Rocket 2.6 18:07:13 10° SW 18:11:08 45° WNW 18:15:00 10° N
Cosmos 1953 Rocket 4.2 18:07:41 10° SSE 18:11:52 35° ESE 18:15:58 10° NE
Meteor 1-15 Rocket 4.3 18:07:47 10° N 18:13:36 65° E 18:19:33 10° SSE
YAOGAN 1 3.6 18:11:43 16° SE 18:14:18 26° E 18:17:57 10° NNE
Cosmos 2369 3.8 18:08:52 10° NNW 18:14:32 78° WSW 18:20:16 10° SSE
Cosmos 1140 Rocket 4.0 18:12:58 10° S 18:17:53 36° ESE 18:22:42 10° NE
SJ-12 3.8 18:14:14 10° SSE 18:18:24 76° E 18:22:30 10° N
Cosmos 1437 Rocket 3.0 18:15:11 10° NNW 18:19:17 78° W 18:23:23 10° S
Ariane Rocket 3.0 18:16:31 10° SSE 18:21:42 88° ENE 18:26:48 10° NNW
Cosmos 1452 Rocket 3.5 18:17:35 10° N 18:22:50 69° ENE 18:28:06 10° SSE
Cosmos 1610 Rocket 4.5 18:17:24 10° N 18:23:37 79° E 18:30:00 10° S
Cosmos 1656 3.7 18:18:06 10° NNW 18:23:50 88° WSW 18:29:36 10° SSE
Cosmos 1867 3.5 18:20:03 10° SSW 18:25:29 70° ESE 18:30:53 10° NE
Cosmos 2228 3.6 18:24:38 10° NNE 18:28:39 37° E 18:30:48 23° SE
Cosmos 407 Rocket 3.7 18:24:19 10° SSW 18:29:38 76° WNW 18:34:49 10° N
ATLAS 5 CENTAUR R/B 2.6 18:25:19 10° SW 18:30:19 53° WNW 18:34:52 10° NNE
SMAP 3.0 18:27:18 10° SSE 18:32:00 64° E 18:36:39 10° N
Kosmos-1783 4.4 18:31:16 10° NW 18:34:09 39° SW 18:35:42 20° S
Cosmos 1842 4.5 18:30:37 10° SSW 18:34:26 44° W 18:38:13 10° NNW
Cosmos 1697 Rocket 2.6 18:29:32 10° NNW 18:35:12 79° ENE 18:40:02 15° SSE
CSL-04 Rocket 4.0 18:32:19 10° S 18:37:53 71° WSW 18:43:17 10° NNW
BREEZE-M DEB (TANK) 4.0 18:32:41 10° W 18:38:35 25° SSW 18:40:21 17° S
USA 229 DEB 4.2 18:34:34 10° N 18:41:25 44° ENE 18:44:53 27° ESE
IRS-1A Rocket 4.3 18:35:42 10° SSE 18:41:30 75° ENE 18:47:21 10° N
USA 229 4.2 18:34:41 10° N 18:41:31 44° ENE 18:44:58 27° ESE
IDEFIX/ARIANE 42P 3.4 18:36:52 10° S 18:41:59 51° WSW 18:47:04 10° NNW
Cosmos 1954 Rocket 3.9 18:37:13 10° SSW 18:42:37 76° ESE 18:47:54 10° NNE
Cosmos 1850 Rocket 4.4 18:41:40 10° S 18:46:37 38° ESE 18:47:40 34° E
AQUARIUS 4.1 18:42:06 10° SSE 18:46:39 87° WSW 18:51:11 10° NNW
Cosmos 2227 Rocket 3.3 18:43:39 10° SW 18:49:06 47° WNW 18:54:31 10° N
ATLAS CENTAUR R/B 1.6 18:45:53 10° NNW 18:49:59 52° ENE 18:50:40 47° E
Cosmos 614 Rocket 3.9 18:48:34 10° SSW 18:53:47 64° ESE 18:58:59 10° NNE
Cosmos 2058 Rocket 3.0 18:52:12 10° N 18:56:41 88° W 18:59:40 21° S
Tiangong 2 1.6 18:57:12 10° WNW 19:00:03 60° WSW 19:00:03 60° WSW
Cosmos 1295 Rocket 4.4 18:57:02 10° N 19:03:18 75° E 19:09:36 10° S
Cosmos 1726 Rocket 4.4 18:59:33 10° NNW 19:03:55 51° W 19:08:21 10° S
BREEZE M DEB (TANK) 3.6 19:04:07 10° NW 19:05:04 21° NNW 19:05:04 21° NNW
Cosmos 2341 Rocket 4.0 19:00:32 10° N 19:06:51 86° W 19:13:12 10° S
Lacrosse 5 rocket 1.3 19:04:21 10° NW 19:08:50 80° NE 19:08:55 80° ENE
Cosmos 1741 Rocket 4.0 19:05:06 10° S 19:10:25 61° ESE 19:10:54 58° E
Cosmos 1484 Rocket 3.5 19:08:52 27° S 19:10:53 55° WSW 19:14:47 10° NNW
Hubble Space Telescope 3.2 19:17:24 10° NNW 19:18:52 13° N 19:18:52 13° N
SPOT 3 Rocket 3.6 19:25:16 49° S 19:26:43 79° WSW 19:31:54 10° NNW
Meteor 1-4 Rocket 4.1 19:27:31 10° NW 19:30:58 35° WSW 19:30:59 35° WSW
SL-16 R/B 3.5 19:30:02 10° N 19:32:44 27° NNE 19:32:44 27° NNE
CZ-4 R/B 3.7 19:33:51 13° SSW 19:36:31 22° WSW 19:39:43 10° WNW
Cosmos 1980 Rocket 2.8 19:31:16 10° NW 19:36:45 54° WSW 19:38:27 40° SSW
OAO 2 Rocket 3.9 19:35:37 10° WNW 19:39:37 52° NW 19:39:37 52° NW
NOSS 3-1 (C) 4.1 19:42:45 10° NNW 19:50:26 61° NE 19:50:26 61° NE
Cosmos 2322 Rocket 3.8 20:01:09 10° NNW 20:03:34 27° NNW 20:03:34 27° NNW
CZ-3 Stage 3 4.5 20:25:16 10° WNW 20:26:36 14° WNW 20:26:36 14° WNW
